Bankruptcy Auction for Organic Transit Inc. (2)

All items closed

Selling for James B. Angell, United States Bankruptcy Trustee, for Organic Transit Inc., Case # 19-80434; United States Bankruptcy Court, Middle District of North Carolina, Durham Division.

« Back to list
Bankruptcy Auction for Organic Transit Inc.

Lot #0006: 1987 BMW 635 CSI

Bidding is closed.
High Bid:$6,000.00
NA
Bidding Ended: Thu, Mar 26  2:00:00 pm ET
High Bidder: Gharris0413
Bid Increment: $250.00
Starting Bid: $100.00
Item Location: 174 Airport Rd, Rockingham, NC 28379
Item has been viewed 500 times.

VIN WBAEC8401H0614862

99,360 Miles Showing

Inline 6 Cylinder Engine

3428 cu CM displacement

5 speed manual transmission 

Power windows

Power seats

AC

Sunroof

Cruise Control 

Leather Interior 

Alpine CD Radio

Rockford Fosgate Speakers in Door Pods 

Aluminum Rims

265/40 ZR18 95W Tires Front

265/35ZR18 97W XL Tires Rear

Condition issues:

Clear coat peeling on hood

Driver side headlamp loose

Scuff on driver front fender

Minor paint fade

Leather seats need reconditioning 

Dashboard has cracking

Shifter boot loose

Check engine light is on

All items in this auction are selling “AS-IS, WHERE IS” with all faults, if any. Iron Horse Auction Company, Inc. makes no representations or warranties, expressed or implied, concerning the items being sold. Descriptions of the items are believed to be correct but are not guaranteed. It is the Buyer’s responsibility to conduct any inspections prior to the auction. All due diligence periods end the date the auction is scheduled to end and prior to the end of the auction. It is possible that the property being sold is subject to local, state and federal regulatory authorities and it is the Buyer’s responsibility to ascertain if they are subject to regulation and permitting. Iron Horse Auction Company, Inc. has attempted to find or locate all information deemed material facts. Ultimately, it is the Buyer’s responsibility to inspect all aspects of the items before placing a bid. No sale shall be invalidated by the Buyer as a result of he/she not conducting their own inspection prior to placing a bid or doing due diligence. It is automatically acknowledged by placing a bid that you have personally inspected the property, hired an agent to inspect the property, or waived your right to inspect the property. The sale of an item is not negotiable if you are not the winning bidder of other items. If you bid on an item, you will pay and pick up that item.


Bid Date Bid Amount Bidder
Mar 26, 2020 - 1:49:50 PM $6,000.00 iGharris0413
Mar 26, 2020 - 1:49:50 PM $5,750.00 ijmcookesq
Mar 26, 2020 - 1:46:56 PM $5,450.00 iGharris0413
Mar 26, 2020 - 1:46:56 PM $5,200.00 ijmcookesq
Mar 26, 2020 - 1:45:04 PM $4,900.00 ijmcookesq
Mar 26, 2020 - 1:45:04 PM $4,800.00 iGharris0413
Mar 26, 2020 - 1:44:59 PM $4,200.00 iGharris0413
Mar 26, 2020 - 1:44:59 PM $4,100.00 ijmcookesq
Mar 26, 2020 - 1:44:34 PM $3,800.00 ijmcookesq
Mar 26, 2020 - 1:44:34 PM $3,700.00 iGharris0413
Mar 25, 2020 - 11:16:20 AM $3,650.00 iGharris0413
Mar 25, 2020 - 11:16:07 AM $3,550.00 iMoby242
Mar 25, 2020 - 11:16:07 AM $3,500.00 iGharris0413
Mar 25, 2020 - 7:13:29 AM $3,400.00 iMoby242
Mar 25, 2020 - 7:12:59 AM $3,300.00 iMerlin530i
Mar 25, 2020 - 7:13:00 AM $3,300.00 iMoby242
Mar 23, 2020 - 4:15:05 PM $3,200.00 iMerlin530i
Mar 23, 2020 - 1:43:27 PM $3,100.00 iRstisme
Mar 23, 2020 - 12:40:39 PM $3,000.00 idjr71
Mar 23, 2020 - 12:40:39 PM $2,900.00 iDannyGT
Mar 23, 2020 - 12:40:32 PM $2,800.00 idjr71
Mar 23, 2020 - 12:40:32 PM $2,700.00 iDannyGT
Mar 23, 2020 - 12:40:20 PM $2,600.00 idjr71
Mar 23, 2020 - 12:40:20 PM $2,500.00 iDannyGT
Mar 23, 2020 - 11:42:03 AM $2,400.00 idjr71
Mar 22, 2020 - 8:28:19 PM $2,300.00 iDannyGT
Mar 22, 2020 - 8:21:35 PM $2,200.00 iTaildog
Mar 22, 2020 - 8:42:04 AM $2,100.00 iDannyGT
Mar 21, 2020 - 10:40:20 PM $2,000.00 iMoby242
Mar 21, 2020 - 10:16:33 PM $1,900.00 iRstisme
Mar 21, 2020 - 10:16:29 PM $1,800.00 iMoby242
Mar 21, 2020 - 10:16:29 PM $1,700.00 iRstisme
Mar 21, 2020 - 11:20:54 AM $1,600.00 iMoby242
Mar 21, 2020 - 11:20:54 AM $1,500.00 iRstisme
Mar 21, 2020 - 11:20:35 AM $1,350.00 iRstisme
Mar 21, 2020 - 11:20:35 AM $1,250.00 iMoby242
Mar 21, 2020 - 11:12:12 AM $1,150.00 iRstisme
Mar 21, 2020 - 11:12:06 AM $1,050.00 iMoby242
Mar 21, 2020 - 11:12:07 AM $1,050.00 iRstisme
Mar 21, 2020 - 11:11:58 AM $900.00 iMoby242
Mar 21, 2020 - 11:11:58 AM $850.00 iRstisme
Mar 20, 2020 - 10:03:12 PM $800.00 iMoby242
Mar 20, 2020 - 5:23:38 PM $750.00 iKtanouar
Mar 20, 2020 - 2:22:58 PM $700.00 iTaildog
Mar 19, 2020 - 10:52:06 PM $650.00 ibburton123
Mar 19, 2020 - 9:33:01 PM $600.00 iCpalmer
Mar 19, 2020 - 11:27:24 AM $550.00 ibburton123
Mar 19, 2020 - 11:27:24 AM $500.00 iVeldung
Mar 19, 2020 - 11:27:13 AM $475.00 iVeldung
Mar 19, 2020 - 11:27:13 AM $450.00 ibburton123
Mar 19, 2020 - 11:26:58 AM $375.00 iVeldung
Mar 19, 2020 - 11:26:58 AM $350.00 ibburton123
Mar 19, 2020 - 11:26:47 AM $275.00 iVeldung
Mar 19, 2020 - 11:26:47 AM $250.00 ibburton123
Mar 19, 2020 - 11:26:31 AM $130.00 iVeldung
Mar 19, 2020 - 11:26:31 AM $120.00 ibburton123
Mar 19, 2020 - 9:46:28 AM $110.00 iVeldung
Mar 19, 2020 - 9:07:32 AM $100.00 iSEL777